Regional Weather Roundup
Issued by NWS

Home | Current Version | Previous Version | Text Only | Print | Product List | Glossary Off
Versions: 1 2 3 4 5 6 7 8 9 10 11 12 13 14 15 16 17 18 19 20 21 22 23 24 25 26 27 28 29 30 31 32 33 34 35 36 37 38 39 40 41 42 43 44 45 46 47 48 49 50

000
ASUS43 KDMX 190406
RWRIA

WEATHER ROUNDUP FOR IOWA
NATIONAL WEATHER SERVICE DES MOINES IA
1000 PM CST SAT FEB 18 2017

NOTE: "FAIR" INDICATES FEW OR NO CLOUDS BELOW 12,000 FEET WITH NO
SIGNIFICANT WEATHER AND/OR OBSTRUCTIONS TO VISIBILITY.

* - THESE STATIONS ARE NOT NWS STATIONS...THUS NOT UNDER NWS
QUALITY CONTROL.  THEY ALSO DO NOT REPORT WEATHER SUCH
AS PRECIPITATION OR FOG.

IAZ001>003-012>014-020>022-031>034-043>046-190500-
   NORTHWEST IOWA

CITY           SKY/WX    TMP DP  RH WIND       PRES   REMARKS
CARROLL *      CLOUDY    34  34 100 CALM      29.85R
CHEROKEE *     CLOUDY    34  34  99 CALM      29.84R
DENISON *      CLOUDY    37  32  81 CALM      29.82S
LE MARS *      CLOUDY    36  36 100 CALM      29.84R
SHELDON *      CLOUDY    36  36 100 SE8       29.81S WCI  29
SIOUX CITY     PTCLDY    42  35  76 SE3       29.82R
SPENCER        PTCLDY    34  33  96 E7        29.84F WCI  28
STORM LAKE *   CLOUDY    41  39  93 SE7       29.84R
$$

IAZ055>058-069>071-079>083-090>094-190500-
   SOUTHWEST IOWA

CITY           SKY/WX    TMP DP  RH WIND       PRES   REMARKS
ATLANTIC *     CLOUDY    36  34  93 N6        29.84R WCI  31
CLARINDA *       N/A     36  30  80 CALM      29.85R
COUNCIL BLFS * PTCLDY    50  34  53 E6        29.82S
CRESTON *      CLOUDY    46  30  53 SE5       29.86R
HARLAN  *      CLOUDY    36  34  93 N3        29.87S
LAMONI         CLOUDY    53  31  42 E3        29.85R
RED OAK *      CLOUDY    37  32  81 CALM      29.83S
SHENANDOAH *   CLOUDY    43  34  70 NE3       29.83R
$$

IAZ047>049-059>061-072>074-084-190500-
   CENTRAL IOWA

CITY           SKY/WX    TMP DP  RH WIND       PRES   REMARKS
AMES           CLOUDY    39  39 100 CALM      29.85S
ANKENY *       CLOUDY    37  34  87 CALM      29.86S
BOONE *        CLOUDY    43  43 100 E3        29.85R
CHARITON *     CLOUDY    48  32  53 SE6       29.85R
DES MOINES     CLOUDY    47  35  63 E6        29.85S
GRINNELL*      CLOUDY    45  38  77 NE5       29.87R
KNOXVILLE *    CLOUDY    50  32  50 E5        29.84R
MARSHALLTOWN   CLOUDY    36  35  96 CALM      29.85R FOG
NEWTON *       CLOUDY    45  37  76 NE7       29.85R
PELLA *        CLOUDY    48  35  60 NE3       29.86S
PERRY *          N/A     42  40  90 CALM      29.86R
$$

IAZ004>006-015-016-023>025-035-036-190500-
   NORTH CENTRAL IOWA

CITY           SKY/WX    TMP DP  RH WIND       PRES   REMARKS
ALGONA *       CLOUDY    39  39 100 CALM      29.86S
CLARION *      FOG       36  36 100 NE3       29.87R VSB 3/4
ESTHERVILLE    FOG       36  36 100 SE7       29.84F VSB 3/4 WCI  30
FORT DODGE *   CLOUDY    30  27  86 CALM      29.87R
MASON CITY     CLOUDY    33  32  96 CALM      29.89R FOG
FOREST CITY *    N/A     32  28  86 CALM      29.87R
IOWA FALLS *   FOG       34  33  96 CALM      29.87R VSB 1/4
$$

IAZ007>011-017>019-026>030-037>042-050>054-066-190500-
   NORTHEAST IOWA

CITY           SKY/WX    TMP DP  RH WIND       PRES   REMARKS
CEDAR RAPIDS   CLEAR     38  36  92 NW7       29.85R WCI  33
CHARLES CITY * FOG       37  37 100 N6        29.88R VSB 3/4 WCI  33
CLINTON *      CLEAR     38  32  79 N5        29.85R WCI  34
DECORAH *      CLEAR     39  37  93 CALM      29.87R
DUBUQUE        CLEAR     33  31  92 CALM      29.85R
MONTICELLO *   CLEAR     32  32 100 CALM      29.86R
WATERLOO       FOG       31  29  92 CALM      29.86R VSB 1/4
$$

IAZ064-065-067-068-078-190500-
   EAST CENTRAL IOWA

CITY           SKY/WX    TMP DP  RH WIND       PRES   REMARKS
DAVENPORT      CLEAR     38  31  76 W3        29.85R
IOWA CITY      CLEAR     37  32  82 CALM      29.87R
MUSCATINE *    CLEAR     39  32  75 CALM      29.86R
QUAD CITIES    CLEAR     39  30  70 CALM      29.85R
$$

IAZ062-063-075>077-085>089-095>099-190500-
   SOUTHEAST IOWA

CITY           SKY/WX    TMP DP  RH WIND       PRES   REMARKS
BURLINGTON     CLEAR     46  33  60 CALM      29.85R
FAIRFIELD *    CLEAR     41  28  60 CALM      29.85S
KEOKUK *       CLEAR     48  37  66 CALM      29.85S
OTTUMWA        CLEAR     41  31  67 CALM      29.85R
WASHINGTON *   CLEAR     43  36  75 N5        29.86S HAZE
$$

ABBREVIATIONS USED IN REMARKS
   TC - TEMPERATURES IN CELSIUS
  WCI - WIND CHILL INDEX
   HX - HEAT INDEX
  VSB - VISIBILITY
$$





USA.gov is the U.S. government's official web portal to all federal, state and local government web resources and services.